KF5CFW Weather Reports


time (UTC)temp
C
wind
direction
speed
KPH
gust
KPH
rain 1hr
cm
rain 24hr
cm
rain mn
cm
humidity
%
barometer
mb
20260507060028 15 6 0.0 1.6 0.00 0.03 0.00 36 1016.5
20260507054521 15 5 0.0 1.6 0.00 0.03 0.00 42 1016.5
20260507053020 15 21 0.0 1.6 0.00 0.03 0.00 46 1016.5
20260507051517 15 11 0.0 1.6 0.00 0.03 0.00 47 1016.6
20260507050032 15 12 0.0 1.6 0.00 0.03 0.00 46 1016.5
20260507044515 15 9 0.0 1.6 0.00 0.03 0.03 47 1016.5
20260507043013 15 49 0.0 1.6 0.00 0.03 0.03 47 1016.6
20260507041522 15 23 0.0 0.0 0.00 0.03 0.03 48 1016.7
20260507040011 15 11 0.0 1.6 0.00 0.03 0.03 45 1016.8
20260507034506 15 15 0.0 1.6 0.00 0.03 0.03 44 1016.8
20260507033002 15 11 0.0 0.0 0.00 0.03 0.03 25 1016.7
20260507031558 15 1 0.0 1.6 0.00 0.03 0.03 25 1016.6
20260507030054 15 356 0.0 1.6 0.00 0.03 0.03 20 1016.5
20260507024548 15 306 0.0 1.6 0.00 0.03 0.03 13 1016.3
20260507023045 15 297 0.0 1.6 0.00 0.03 0.03 11 1015.9
20260507021543 15 22 0.0 1.6 0.00 0.03 0.03 6 1015.6
20260507020036 15 45 0.0 1.6 0.00 0.03 0.03 1 1015.2
20260507014530 15 20 0.0 1.6 0.00 0.03 0.03 1 1014.8
20260507013025 15 1 0.0 1.6 0.00 0.03 0.03 1 1014.5
20260507011523 15 203 0.0 1.6 0.00 0.03 0.03 1 1014.2
20260507010021 15 203 0.0 1.6 0.00 0.03 0.03 1 1014.1
20260507004517 16 205 0.0 0.0 0.00 0.03 0.03 1 1013.8
20260507003009 16 204 0.0 0.0 0.00 0.03 0.03 1 1013.7
20260507001508 16 348 0.0 0.0 0.00 0.03 0.03 1 1013.7
20260507000100 16 8 0.0 0.0 0.00 0.03 0.03 1 1013.4
20260506234559 16 8 0.0 0.0 0.00 0.03 0.03 1 1013.3
20260506233050 15 8 0.0 0.0 0.03 0.03 0.03 1 1013.1
20260506231604 15 7 0.0 0.0 0.03 0.03 0.03 1 1013.2
20260506224540 16 5 0.0 1.6 0.03 0.03 0.03 31 1013.0
20260506223032 16 4 0.0 1.6 0.00 0.00 0.00 53 1012.9
20260506221528 16 68 0.0 1.6 0.00 0.00 0.00 52 1012.7
20260506220033 16 335 0.0 1.6 0.00 0.00 0.00 53 1012.7
20260506214520 16 1 0.0 1.6 0.00 0.00 0.00 53 1012.8
20260506213015 16 6 0.0 1.6 0.00 0.00 0.00 52 1012.7
20260506211511 16 359 0.0 1.6 0.00 0.00 0.00 52 1012.7
20260506210007 16 19 0.0 1.6 0.00 0.00 0.00 52 1012.9
20260506204502 16 15 0.0 1.6 0.00 0.00 0.00 53 1013.1
20260506203058 16 19 0.0 1.6 0.00 0.00 0.00 50 1013.1
20260506201554 16 347 0.0 1.6 0.00 0.00 0.00 49 1013.4
20260506200049 15 358 0.0 1.6 0.00 0.00 0.00 42 1013.6
20260506194545 15 314 0.0 1.6 0.00 0.00 0.00 36 1013.8
20260506193040 14 4 0.0 1.6 0.00 0.00 0.00 28 1014.0
20260506191539 14 1 0.0 1.6 0.00 0.00 0.00 26 1014.2
20260506190034 14 1 0.0 1.6 0.00 0.00 0.00 27 1014.3
20260506184532 14 47 0.0 0.0 0.00 0.00 0.00 26 1014.3
20260506183025 14 48 0.0 1.6 0.00 0.00 0.00 22 1014.2
20260506181521 13 63 0.0 1.6 0.00 0.00 0.00 20 1013.3
20260506180023 13 6 0.0 3.2 0.00 0.00 0.00 6 1012.5
20260506174522 13 11 0.0 4.8 0.00 0.00 0.00 1 1012.8
20260506173008 12 9 0.0 1.6 0.00 0.00 0.00 1 1013.7
20260506171504 12 22 0.0 3.2 0.00 0.00 0.00 1 1013.5
20260506164555 12 356 0.0 1.6 0.00 0.00 0.00 1 1013.7
20260506163050 12 15 0.0 1.6 0.00 0.00 0.00 1 1013.6
20260506161546 12 15 0.0 3.2 0.00 0.00 0.00 1 1013.7
20260506160054 12 40 0.0 1.6 0.00 0.00 0.00 1 1013.7
20260506154537 12 15 0.0 1.6 0.00 0.00 0.00 1 1013.4
20260506153035 12 20 0.0 1.6 0.00 0.00 0.00 1 1012.4
20260506151535 12 23 0.0 1.6 0.00 0.00 0.00 3 1015.1
20260506150028 12 233 0.0 1.6 0.00 0.00 0.00 24 1015.1
20260506144525 12 201 0.0 1.6 0.00 0.00 0.00 33 1014.8
20260506143021 12 342 0.0 3.2 0.00 0.00 0.00 40 1013.0
20260506141520 12 20 0.0 1.6 0.00 0.00 0.00 41 1013.4
20260506140025 12 13 0.0 3.2 0.00 0.00 0.00 44 1013.3
20260506134515 13 6 0.0 1.6 0.00 0.00 0.00 47 1012.9
20260506133016 13 338 0.0 1.6 0.00 0.00 0.00 50 1012.8
20260506131515 13 352 0.0 3.2 0.00 0.00 0.00 53 1012.6
20260506130009 13 342 0.0 3.2 0.00 0.00 0.00 57 1012.0
20260506124507 13 1 0.0 1.6 0.00 0.00 0.00 59 1012.2
20260506123005 13 15 0.0 1.6 0.00 0.00 0.00 59 1011.9
20260506121601 13 5 0.0 3.2 0.00 0.00 0.00 60 1011.5
20260506114558 13 347 0.0 1.6 0.00 0.00 0.00 60 1011.5
20260506113053 14 340 0.0 1.6 0.00 0.00 0.00 59 1011.0
20260506111551 14 4 0.0 1.6 0.00 0.00 0.00 59 1010.7
20260506110049 14 350 0.0 1.6 0.00 0.00 0.00 59 1010.7
20260506104548 15 344 0.0 1.6 0.00 0.00 0.00 58 1010.4
20260506103044 15 15 0.0 3.2 0.00 0.00 0.00 59 1010.0
20260506101544 15 354 0.0 1.6 0.00 0.00 0.00 58 1009.7
20260506100042 15 349 0.0 1.6 0.00 0.00 0.00 57 1009.5
20260506094536 15 330 0.0 1.6 0.00 0.00 0.00 58 1009.4
20260506093032 16 354 0.0 1.6 0.00 0.00 0.00 57 1009.2
20260506091532 16 356 0.0 1.6 0.00 0.00 0.00 57 1009.2
20260506090030 16 356 0.0 1.6 0.00 0.00 0.00 57 1009.0
20260506084529 16 6 0.0 1.6 0.00 0.00 0.00 56 1009.0
20260506083027 16 9 0.0 1.6 0.00 0.00 0.00 57 1008.7
20260506081524 16 11 0.0 1.6 0.00 0.00 0.00 56 1008.8
20260506073021 17 26 0.0 1.6 0.00 0.00 0.00 53 1008.4
20260506071520 17 359 0.0 1.6 0.00 0.00 0.00 52 1008.4
20260506061514 17 13 0.0 1.6 0.00 0.00 0.00 55 1008.4